Tracking 29065 objects as of 22-Jul-2024
HD Live streaming from Space Station
objects crossing your sky now

COSMOS 1275 DEB

Track COSMOS 1275 DEB now!
10-day predictions


NORAD ID: 42102
Int'l Code: 1981-053PN
Perigee: 893.2 km
Apogee: 1,005.7 km
Inclination: 83.0 °
Period: 103.9 minutes
Semi major axis: 7320 km
RCS: Unknown
Launch date: June 4, 1981
Source: Commonwealth of Independent States (former USSR) (CIS)
Launch site: PLESETSK MISSILE AND SPACE COMPLEX (PKMTR)

Note: This is SATELLITE DEBRIS
Your satellite tracking list
Your tracking list is empty




NASA's NSSDC Master Catalog

Two Line Element Set (TLE):
1 42102U 81053PN  24202.75613926  .00002559  00000-0  21571-2 0  9994
2 42102  83.0102 215.2163 0076823  92.2537 268.7424 13.86098650537980
Source of the keplerian elements: AFSPC